STARLINK-32630, 62047

Orbit data source: Space-Track

STARLINK-32630, 62047 is a payload satellite owned by SpaceX/Seattle (US) in LEO that was launched on Thu, 21 Nov 2024 UTC via an FALCON 9 launch vehicle from the Air Force Eastern Test Range (AFETR). Payload-class satellites include a variety of spacecraft equipped with specific instruments for various scientific and technological missions. These include communications satellites like Starlink; space stations such as the ISS; scientific satellites like the Hubble; Earth observation satellites from companies like Planet Labs, Umbra, and HawkEye 360; GPS; miniature CubeSats for education and research; and military/defense satellites.

Loading next visibility...
Identifier
62047, 2024-216R
Orbit
LEO
Last TLE update
13 hours ago
Origin
Manufacturer
SpaceX/Seattle
Mission
Operational Commercial Communications
Bus & Motor
STARLINK V2M, Unknown motor
Mass
730 kg wet, ~700 kg dry
Launch date (UTC)
2024-11-21 (7 months ago)
Launch vehicle
FALCON 9
Launch site
Air Force Eastern Test Range (AFETR)
Object type
Payload
Rocket body
Debris
Shape & HBR
Box + 2 Pan, 29 m
Radar Cross Section
36.964 m², Large (>1 m²)

Expand to show TLE details & history

TLE from 13 hours ago
0 STARLINK-32630
1 62047U 24216R   25187.39040900  .00016433  00000-0  60512-3 0  9996
2 62047  43.0025 214.5280 0001963 271.5456  88.5171 15.27592707 36123
Epoch: 2025-07-06T09:22Z
TLE epoch observation values (Epoch: 2025-07-06T09:22:11.337Z)
Latitude
-0.00001°
Longitude
149.36597°
Altitude
482.752 km
Speed
7.626 km/s
True Right ascension
14h 18m 06s
True Declination
0° 00' 00"
Sunlit
Object was in daylight at epoch
Visualization orbit readout
Latitude
-4.84724°
Longitude
141.22953°
Altitude
483.213 km
Speed
7.625 km/s
Apparent Right ascension
16h 43m 12s
Apparent Declination
-38° 03' 28"
Sunlit
Object is in daylight
Visualization observer readout
Local Sidereal Time
09:53:37
Azimuth
115.35° SE
Elevation
-31.682°
Doppler factor
1
Orbital elements
Apogee altitude
486.303 km
Perigee altitude
483.609 km
Semi-major axis
6,863.093 km
Eccentricity
0.0002
Inclination
43.0025°
RAAN
214.528°
Arg. of periapsis
271.5456°
True anomaly
Unknown
Mean anomaly
88.5171°
Eccentric anomaly
Unknown
Mean motion
3.81736 °/min
Orbital period
94.31 mins
BSTAR
0.00060512
Loading maneuver chart data...
Loading SW <> Apogee altitude chart data...
Loading historical data...
Loading historical data...
Loading historical data...
Loading historical data...
Loading historical data...
Loading historical data...
Loading historical data...

STARLINK-32630 Visibility forecast

Observer location: undefined°, undefined°

Span
Click to sort rows by Start time (UTC) header in descending order
Start Az.
Max El. time (UTC)
Max El. Az.
Max El.
End time (UTC)
End Az.
4 mins2025-07-07 04:23:34.631Z183.39° SSW2025-07-07 04:25:34.631Z143.931° SSE19.18°2025-07-07 04:27:34.631Z105.045° ESE
6 mins2025-07-07 06:01:34.631Z247.176° WSW2025-07-07 06:04:34.631Z85.434° E42.824°2025-07-07 06:07:34.631Z72.663° E
5 mins2025-07-07 07:41:34.631Z294.405° NW2025-07-07 07:43:34.631Z18.173° NNE37.406°2025-07-07 07:46:34.631Z74.124° E
5 mins2025-07-07 09:20:34.631Z293.163° NW2025-07-07 09:22:34.631Z44.154° NE44.051°2025-07-07 09:25:34.631Z101.672° ESE
4 mins2025-07-07 10:59:34.631Z253.801° W2025-07-07 11:01:34.631Z199.588° SSW25.561°2025-07-07 11:03:34.631Z158.733° S
|